| time (UTC) | temp F | wind direction | speed MPH | gust MPH | rain 1hr in | rain 24hr in | rain mn in | humidity % | barometer mb |
| 20260903071518 | 64 | 148 | 1.0 | 3.0 | 0.10 | 0.59 | 0.25 | 96 | 1014.7 |
| 20260903070013 | 64 | 240 | 0.0 | 2.0 | 0.06 | 0.55 | 0.21 | 96 | 1016.1 |
| 20260903064510 | 64 | 234 | 1.0 | 3.0 | 0.03 | 0.52 | 0.18 | 96 | 1016.4 |
| 20260903063011 | 64 | 234 | 0.0 | 1.0 | 0.02 | 0.50 | 0.16 | 96 | 1015.7 |
| 20260903061509 | 64 | 234 | 0.0 | 2.0 | 0.03 | 0.49 | 0.15 | 96 | 1015.3 |
| 20260903060007 | 64 | 338 | 0.0 | 2.0 | 0.05 | 0.49 | 0.15 | 96 | 1015.5 |
| 20260903054505 | 64 | 338 | 0.0 | 2.0 | 0.07 | 0.49 | 0.15 | 96 | 1015.8 |
| 20260903053003 | 64 | 338 | 0.0 | 2.0 | 0.08 | 0.48 | 0.14 | 96 | 1016.1 |
| 20260903051502 | 64 | 338 | 0.0 | 2.0 | 0.09 | 0.46 | 0.12 | 96 | 1016.6 |
| 20260903050001 | 64 | 338 | 0.0 | 2.0 | 0.10 | 0.44 | 0.10 | 96 | 1016.8 |
| 20260903044601 | 64 | 338 | 0.0 | 2.0 | 0.10 | 0.42 | 0.08 | 96 | 1016.5 |
| 20260903043201 | 64 | 338 | 0.0 | 1.0 | 0.13 | 0.40 | 0.06 | 96 | 1016.5 |
| 20260903041602 | 65 | 338 | 0.0 | 1.0 | 0.27 | 0.37 | 0.03 | 96 | 1016.6 |
| 20260903040053 | 65 | 338 | 0.0 | 2.0 | 0.28 | 0.34 | 0.00 | 96 | 1017.4 |
| 20260903034552 | 65 | 338 | 0.0 | 1.0 | 0.30 | 0.32 | 0.32 | 96 | 1017.9 |
| 20260903033053 | 65 | 338 | 1.0 | 2.0 | 0.26 | 0.27 | 0.27 | 96 | 1018.9 |
| 20260903031554 | 65 | 289 | 3.0 | 7.0 | 0.09 | 0.10 | 0.10 | 96 | 1018.5 |
| 20260903030050 | 65 | 165 | 1.0 | 3.0 | 0.04 | 0.05 | 0.05 | 96 | 1017.5 |
| 20260903024549 | 65 | 186 | 1.0 | 3.0 | 0.01 | 0.02 | 0.02 | 96 | 1016.8 |
| 20260903023049 | 65 | 196 | 1.0 | 2.0 | 0.00 | 0.01 | 0.01 | 96 | 1016.8 |
| 20260903021548 | 65 | 196 | 0.0 | 2.0 | 0.00 | 0.01 | 0.01 | 96 | 1016.7 |
| 20260903020048 | 65 | 196 | 0.0 | 2.0 | 0.00 | 0.01 | 0.01 | 96 | 1017.3 |
| 20260903014550 | 65 | 196 | 1.0 | 2.0 | 0.00 | 0.01 | 0.01 | 96 | 1016.9 |
| 20260903013055 | 65 | 198 | 0.0 | 3.0 | 0.00 | 0.01 | 0.01 | 96 | 1017.4 |
| 20260903011546 | 65 | 156 | 0.0 | 2.0 | 0.00 | 0.01 | 0.01 | 96 | 1016.9 |
| 20260903010048 | 65 | 159 | 0.0 | 2.0 | 0.00 | 0.01 | 0.01 | 96 | 1016.5 |
| 20260903004544 | 65 | 159 | 0.0 | 2.0 | 0.00 | 0.01 | 0.01 | 95 | 1016.6 |
| 20260903003045 | 65 | 158 | 0.0 | 2.0 | 0.00 | 0.01 | 0.01 | 95 | 1016.7 |
| 20260903001543 | 65 | 162 | 1.0 | 3.0 | 0.00 | 0.01 | 0.01 | 95 | 1016.7 |
| 20260903000044 | 65 | 163 | 0.0 | 2.0 | 0.00 | 0.01 | 0.01 | 95 | 1016.8 |
| 20260902234548 | 65 | 163 | 0.0 | 2.0 | 0.00 | 0.02 | 0.01 | 95 | 1016.5 |
| 20260902233040 | 65 | 144 | 0.0 | 3.0 | 0.00 | 0.02 | 0.01 | 95 | 1016.2 |
| 20260902231540 | 65 | 252 | 1.0 | 3.0 | 0.00 | 0.02 | 0.01 | 95 | 1016.2 |
| 20260902230040 | 66 | 189 | 1.0 | 3.0 | 0.00 | 0.02 | 0.01 | 95 | 1016.4 |
| 20260902224600 | 66 | 202 | 0.0 | 2.0 | 0.00 | 0.02 | 0.01 | 95 | 1016.6 |
| 20260902223038 | 66 | 188 | 0.0 | 3.0 | 0.00 | 0.02 | 0.01 | 95 | 1016.6 |
| 20260902221538 | 66 | 159 | 1.0 | 3.0 | 0.00 | 0.02 | 0.01 | 95 | 1016.8 |
| 20260902220040 | 66 | 161 | 1.0 | 3.0 | 0.00 | 0.02 | 0.01 | 95 | 1016.9 |
| 20260902214536 | 66 | 170 | 0.0 | 2.0 | 0.00 | 0.11 | 0.01 | 96 | 1016.9 |
| 20260902213036 | 66 | 170 | 1.0 | 3.0 | 0.00 | 0.11 | 0.01 | 95 | 1017.0 |
| 20260902211537 | 66 | 160 | 0.0 | 2.0 | 0.00 | 0.11 | 0.01 | 95 | 1016.9 |
| 20260902210035 | 66 | 161 | 0.0 | 4.0 | 0.00 | 0.11 | 0.01 | 95 | 1016.6 |
| 20260902204539 | 66 | 38 | 0.0 | 2.0 | 0.00 | 0.13 | 0.01 | 95 | 1016.6 |
| 20260902203036 | 66 | 35 | 0.0 | 2.0 | 0.00 | 0.13 | 0.01 | 95 | 1016.6 |
| 20260902201539 | 67 | 215 | 0.0 | 3.0 | 0.00 | 0.13 | 0.01 | 95 | 1017.0 |
| 20260902200049 | 67 | 126 | 0.0 | 3.0 | 0.00 | 0.13 | 0.01 | 95 | 1017.0 |
| 20260902194532 | 67 | 173 | 0.0 | 3.0 | 0.00 | 0.13 | 0.01 | 95 | 1016.9 |
| 20260902193032 | 67 | 176 | 1.0 | 3.0 | 0.00 | 0.13 | 0.01 | 96 | 1017.2 |
| 20260902191534 | 67 | 204 | 0.0 | 3.0 | 0.00 | 0.13 | 0.01 | 96 | 1016.7 |
| 20260902190047 | 66 | 167 | 0.0 | 3.0 | 0.00 | 0.13 | 0.01 | 95 | 1016.9 |
| 20260902184533 | 66 | 160 | 0.0 | 2.0 | 0.00 | 0.13 | 0.01 | 95 | 1017.1 |
| 20260902183030 | 66 | 207 | 1.0 | 3.0 | 0.00 | 0.13 | 0.01 | 95 | 1017.3 |
| 20260902181530 | 66 | 155 | 0.0 | 5.0 | 0.00 | 0.13 | 0.01 | 95 | 1017.7 |
| 20260902180029 | 66 | 178 | 1.0 | 3.0 | 0.00 | 0.13 | 0.01 | 95 | 1018.1 |
| 20260902174528 | 66 | 178 | 0.0 | 2.0 | 0.00 | 0.13 | 0.01 | 95 | 1018.1 |
| 20260902173028 | 66 | 178 | 1.0 | 3.0 | 0.00 | 0.13 | 0.01 | 95 | 1018.3 |
| 20260902171528 | 66 | 179 | 0.0 | 2.0 | 0.00 | 0.13 | 0.01 | 95 | 1018.1 |
| 20260902170027 | 66 | 149 | 1.0 | 4.0 | 0.01 | 0.13 | 0.01 | 95 | 1018.0 |
| 20260902164525 | 66 | 148 | 0.0 | 3.0 | 0.01 | 0.13 | 0.01 | 95 | 1017.9 |
| 20260902163026 | 66 | 202 | 0.0 | 2.0 | 0.01 | 0.13 | 0.01 | 95 | 1017.9 |
| 20260902161530 | 66 | 202 | 0.0 | 3.0 | 0.01 | 0.13 | 0.01 | 95 | 1017.9 |
| 20260902160031 | 66 | 120 | 1.0 | 3.0 | 0.00 | 0.12 | 0.00 | 95 | 1017.8 |
| 20260902154527 | 66 | 178 | 1.0 | 3.0 | 0.00 | 0.12 | 0.00 | 95 | 1018.0 |
| 20260902153024 | 66 | 232 | 0.0 | 2.0 | 0.00 | 0.12 | 0.00 | 95 | 1018.0 |
| 20260902151523 | 66 | 132 | 1.0 | 3.0 | 0.00 | 0.12 | 0.00 | 94 | 1018.1 |
| 20260902150023 | 66 | 92 | 1.0 | 3.0 | 0.00 | 0.12 | 0.00 | 95 | 1018.0 |
| 20260902144521 | 66 | 205 | 1.0 | 3.0 | 0.00 | 0.13 | 0.00 | 95 | 1017.9 |
| 20260902143021 | 66 | 192 | 1.0 | 2.0 | 0.00 | 0.13 | 0.00 | 95 | 1017.9 |
| 20260902141532 | 66 | 204 | 1.0 | 2.0 | 0.00 | 0.13 | 0.00 | 95 | 1018.4 |
| 20260902140018 | 66 | 238 | 0.0 | 2.0 | 0.00 | 0.13 | 0.00 | 95 | 1018.3 |
| 20260902134516 | 66 | 200 | 1.0 | 3.0 | 0.00 | 0.13 | 0.00 | 95 | 1017.8 |
| 20260902133014 | 66 | 146 | 0.0 | 2.0 | 0.00 | 0.13 | 0.00 | 95 | 1017.7 |
| 20260902131521 | 66 | 146 | 0.0 | 2.0 | 0.00 | 0.13 | 0.00 | 95 | 1017.5 |
| 20260902130013 | 66 | 246 | 1.0 | 3.0 | 0.00 | 0.13 | 0.00 | 95 | 1017.4 |
| 20260902124510 | 66 | 188 | 1.0 | 3.0 | 0.00 | 0.13 | 0.00 | 95 | 1017.4 |
| 20260902123010 | 66 | 138 | 1.0 | 3.0 | 0.00 | 0.13 | 0.00 | 95 | 1017.3 |
| 20260902121509 | 66 | 75 | 0.0 | 1.0 | 0.00 | 0.13 | 0.00 | 95 | 1017.2 |
| 20260902120008 | 66 | 75 | 0.0 | 1.0 | 0.00 | 0.13 | 0.00 | 95 | 1017.0 |
| 20260902114511 | 66 | 75 | 0.0 | 2.0 | 0.00 | 0.13 | 0.00 | 95 | 1017.0 |
| 20260902113004 | 67 | 75 | 0.0 | 2.0 | 0.00 | 0.13 | 0.00 | 95 | 1017.2 |
| 20260902111503 | 67 | 75 | 0.0 | 1.0 | 0.00 | 0.13 | 0.00 | 95 | 1017.1 |
| 20260902110006 | 67 | 75 | 0.0 | 1.0 | 0.00 | 0.13 | 0.00 | 95 | 1017.1 |
| 20260902104505 | 67 | 75 | 0.0 | 2.0 | 0.00 | 0.13 | 0.00 | 95 | 1016.7 |
| 20260902103100 | 67 | 75 | 0.0 | 2.0 | 0.00 | 0.13 | 0.00 | 94 | 1016.8 |
| 20260902101617 | 68 | 221 | 0.0 | 2.0 | 0.00 | 0.13 | 0.00 | 95 | 1016.9 |
| 20260902100058 | 69 | 244 | 0.0 | 2.0 | 0.00 | 0.13 | 0.00 | 94 | 1016.7 |
| 20260902094556 | 69 | 236 | 0.0 | 2.0 | 0.00 | 0.13 | 0.00 | 95 | 1016.5 |
| 20260902093055 | 69 | 236 | 1.0 | 2.0 | 0.00 | 0.13 | 0.00 | 95 | 1016.3 |
| 20260902091555 | 69 | 236 | 0.0 | 1.0 | 0.00 | 0.13 | 0.00 | 95 | 1016.4 |
| 20260902090054 | 69 | 236 | 0.0 | 2.0 | 0.00 | 0.13 | 0.00 | 95 | 1016.3 |
| 20260902084556 | 69 | 236 | 0.0 | 1.0 | 0.00 | 0.13 | 0.00 | 95 | 1016.2 |
| 20260902083053 | 69 | 236 | 0.0 | 1.0 | 0.00 | 0.13 | 0.00 | 95 | 1016.0 |
| 20260902081553 | 69 | 236 | 0.0 | 1.0 | 0.00 | 0.13 | 0.00 | 95 | 1015.9 |
| 20260902080104 | 69 | 236 | 0.0 | 1.0 | 0.00 | 0.13 | 0.00 | 95 | 1015.8 |
| 20260902074552 | 69 | 236 | 0.0 | 2.0 | 0.00 | 0.13 | 0.00 | 95 | 1015.8 |
| 20260902073055 | 70 | 236 | 0.0 | 1.0 | 0.00 | 0.13 | 0.00 | 95 | 1015.8 |